Location: Colossi of Memnon
(25.7167°N, 32.6167°E)
Time: 08:34:08
(UTC+00:00)

X-37B - Visible Passes

Search period start: 21 June 2021 00:00
Search period end: 01 July 2021 00:00
Orbit: 386 x 389 km, 45.0° (Epoch: 10 June)

Date Brightness Start Highest point End Pass type
(mag) Time Alt. Az. Time Alt. Az. Time Alt. Az.
21 Jun 4.2 01:12:12 10° NNE 01:12:57 11° NNE 01:13:42 10° NE visible
21 Jun 1.3 17:40:40 10° SSW 17:43:31 31° SE 17:45:43 15° ENE visible
21 Jun 3.9 19:17:52 10° W 19:18:17 12° WNW 19:18:17 12° WNW visible
22 Jun 2.1 01:48:31 10° NW 01:51:31 39° NE 01:54:31 10° ESE visible
22 Jun 2.1 18:18:44 10° WSW 18:21:43 37° NW 18:24:41 10° NNE visible
23 Jun 3.4 00:50:41 10° NNW 00:53:04 19° NNE 00:55:26 10° E visible
23 Jun 1.4 02:26:53 10° WNW 02:29:41 29° SW 02:32:29 10° SSE visible
23 Jun 0.5 17:20:10 10° SW 17:23:20 87° SSE 17:26:31 10° NE visible
23 Jun 4.3 18:59:56 10° NW 19:00:17 10° NNW 19:00:39 10° NNW visible
24 Jun 0.4 01:30:18 37° WNW 01:31:25 78° SW 01:34:34 10° SE visible
24 Jun 3.6 17:59:25 10° WNW 18:01:43 18° NNW 18:04:00 10° NNE visible
26 Jun 4.4 17:41:40 10° NNW 17:41:50 10° NNW 17:41:59 10° NNW visible
